Regional Weather Roundup
Issued by NWS

Home | Current Version | Previous Version | Graphics & Text | Print | Product List | Glossary On
Versions: 1 2 3 4 5 6 7 8 9 10 11 12 13 14 15 16 17 18 19 20 21 22 23 24 25 26 27 28 29 30 31 32 33 34 35 36 37 38 39 40 41 42 43 44 45 46 47 48 49 50
990
ASUS43 KMPX 250201
RWRMN
WEATHER ROUNDUP FOR MINNESOTA
NATIONAL WEATHER SERVICE TWIN CITIES/CHANHASSEN MN
900 PM CDT MON JUL 24 2017


NOTE: "FAIR" INDICATES FEW OR NO CLOUDS BELOW 12,000 FEET WITH NO
SIGNIFICANT WEATHER AND/OR OBSTRUCTIONS TO VISIBILITY. N/A MEANS
CURRENT SKY AND/OR WEATHER CONDITIONS ARE NOT AVAILABLE.

MNZ060>063-068>070-250300-
   Twin Cities Metro

CITY           SKY/WX    TMP DP  RH WIND       PRES   REMARKS
TWIN CITIES    MOCLDY    73  60  63 SE9       30.03F
ST PAUL        PTCLDY    72  62  71 SE10      30.03F
CRYSTAL        MOCLDY    72  57  59 SE8       30.01F
BLAINE         MOCLDY    73  61  64 SE6       30.02F
LAKEVILLE      CLOUDY    66  63  88 CALM      30.04S
EDEN PRAIRIE   MOCLDY    72  61  68 SE8       30.02F
SOUTH ST PAUL  CLOUDY    72  59  62 SE3       30.03F
LAKE ELMO      FAIR      70  61  73 SE6       30.06S
$$
MNZ001>005-007-008-013>017-022>024-027-028-250300-
   Northwest Minnesota

CITY           SKY/WX    TMP DP  RH WIND       PRES   REMARKS
BEMIDJI        MOCLDY    69  60  72 SE10      29.96S
HALLOCK        CLEAR     72  64  78 S13       29.85S
ROSEAU         CLEAR     72  64  78 S8        29.89S
WARROAD        CLEAR     73  64  73 S7        29.90F
CROOKSTON      CLEAR     72  63  73 S7        29.89R
FOSSTON        PTCLDY    70  59  68 SE7       29.92F
DETROIT LAKES  PTCLDY    72  61  68 S15       29.94S
MOORHEAD       CLEAR     72  63  73 S9        29.91S
PARK RAPIDS    MOCLDY    72  61  68 SE13      29.95F
MAHNOMEN       FAIR      71  61  70 SE8       29.91S
$$
MNZ006-009>011-018-025>026-250300-
   North Central Minnesota

CITY           SKY/WX    TMP DP  RH WIND       PRES   REMARKS
BAUDETTE       CLEAR     71  59  65 S8        29.92F
FLAG ISLAND    CLEAR     73  64  73 S13       29.88S
INTL FALLS     CLEAR     70  56  61 VRB3      29.97R
WASKISH        CLOUDY    70  61  73 SE3       29.95S
BIG FORK       CLOUDY    68  59  73 S3        29.99S
LONGVILLE      CLOUDY    66  61  82 SE5       29.98F
GRAND RAPIDS   CLOUDY    68  61  78 SE3       30.02F
CRANE LAKE     CLEAR     61  57  88 CALM      30.01F
ORR            CLOUDY    64  55  72 SE5       29.98S
COOK           CLOUDY    66  57  72 CALM      30.02S
WALKER         FAIR      69  60  71 SE6       29.96F
$$
MNZ012-019>021-037-250300-
   Northeast Minnesota

CITY           SKY/WX    TMP DP  RH WIND       PRES   REMARKS
DULUTH         PTCLDY    61  54  77 SE7       30.05S
ELY            CLEAR     66  52  59 S5        30.04S
HIBBING        CLOUDY    65  55  70 S3        30.02S
EVELETH        CLOUDY    65  55  70 SE5       30.04S
DULUTH HARBOR  PTCLDY    63  59  88 N3        30.04F
TWO HARBORS    CLOUDY    64  55  72 NE5       30.04S
GRAND MARAIS     N/A     58  55  90 CALM      30.04S
G MARAIS ARPRT CLEAR     57  46  67 CALM      30.09S
$$
MNZ029>031-032-039>041-046>048-054>057-064-250300-
   West Central Minnesota

CITY           SKY/WX    TMP DP  RH WIND       PRES   REMARKS
FERGUS FALLS   CLOUDY    72  63  73 S9        29.93S
WHEATON        CLOUDY    70  64  83 SE13G18   29.92F
MORRIS         LGT RAIN  72  64  78 SE14      29.92F
ALEXANDRIA     LGT RAIN  68  64  87 SE20      29.96S
ELBOW LAKE     FAIR      69  64  82 E9G18     29.94R
WADENA         CLOUDY    70  61  73 SE10      29.94F
GLENWOOD       LGT RAIN  68  64  88 SE7       30.03R
APPLETON       CLOUDY    73  63  68 SE9       29.92F
BENSON         LGT RAIN  73  63  68 SE8G16    29.96F
ORTONVILLE     CLOUDY    72  63  73 SE9       29.93R
MADISON        PTCLDY    77  64  65 SE16G22   29.92F
WILLMAR        FAIR      72  63  73 SE3       30.01R
$$
MNZ033>034-036-042>043-049>051-058-059-250300-
   Central Minnesota

CITY           SKY/WX    TMP DP  RH WIND       PRES   REMARKS
ST CLOUD       CLOUDY    69  62  78 SE7       29.99F
SAUK CENTRE    LGT RAIN  68  63  82 SE8       30.01R
PAYNESVILLE    CLOUDY    72  62  71 S6        30.01R
AITKIN         CLOUDY    66  61  82 SE5       29.99F
PINE RIVER     CLOUDY    68  61  77 SE5       30.01F
BRAINERD       CLOUDY    68  61  78 SE7       29.99F
STAPLES        CLOUDY    70  59  68 SE6       29.97F
LONG PRAIRIE   LGT RAIN  68  61  77 SE6       30.01R
LITTLE FALLS   CLOUDY    68  59  73 SE6       29.99F
LITCHFIELD     CLOUDY    72  63  73 SE12      29.99F
BUFFALO        PTCLDY    70  59  68 SE6       30.02S
MAPLE LAKE     PTCLDY    72  63  73 SE3       30.02S
HUTCHINSON     CLEAR     70  64  81 SE5       30.02S
$$
MNZ037-044-045-052-053-250300-
   East Central Minnesota

CITY           SKY/WX    TMP DP  RH WIND       PRES   REMARKS
PRINCETON      CLOUDY    70  63  78 CALM      30.02S
MORA           CLOUDY    68  59  73 SE3       30.04F
CAMBRIDGE      CLOUDY    72  59  64 E7        30.00F
RUSH CITY      MOCLDY    66  61  82 SE3       30.03F HAZE
MOOSE LAKE     CLOUDY    68  59  73 CALM      30.01F
HINCKLEY       FAIR      70  63  78 SE5       30.03F
CLOQUET        CLOUDY    63  54  72 E5        30.04F
MCGREGOR       CLOUDY    66  61  82 SE5       30.02F
$$
MNZ071>073-080-081-089-090-097-098-250300-
   Southwest Minnesota

CITY           SKY/WX    TMP DP  RH WIND       PRES   REMARKS
MONTEVIDEO     PTCLDY    73  63  68 SE8       29.97R
GRANITE FALLS  PTCLDY    75  65  70 E10       29.97S
CANBY          CLOUDY    74  65  71 SE8       29.94S
MARSHALL       PTCLDY    73  65  75 SE16      29.94F
REDWOOD FALLS  MOCLDY    71  62  73 SE12      29.97S
OLIVIA         CLOUDY    72  63  73 SE9       29.97S
PIPESTONE      CLEAR     75  64  69 SE8       29.96R
WINDOM         CLEAR     72  63  73 SE9       29.99F
WORTHINGTON    CLEAR     71  64  78 SE7       29.98F
JACKSON        CLEAR     70  63  78 CALM      30.01S
TRACY          PTCLDY    73  65  78 SE10      29.96F
SLAYTON        PTCLDY    72  63  72 SE9       29.98F HAZE
$$
MNZ065>067-074>077-082>085-091>093-250300-
   South Central Minnesota

CITY           SKY/WX    TMP DP  RH WIND       PRES   REMARKS
MANKATO        CLEAR     69  63  81 SE7       30.02F
NEW ULM        PTCLDY    72  61  68 SE10      29.99F
ST JAMES       CLEAR     70  64  83 E6        30.00F
FAIRMONT       CLEAR     69  64  84 SE8       30.01S
GLENCOE        MOCLDY    70  65  84 E6        30.00S
FARIBAULT      PTCLDY    70  61  73 SE6       30.04F
OWATONNA       CLEAR     68  63  83 SE6       30.05S
WASECA         CLEAR     64  61  88 E7        30.04F
ALBERT LEA     CLEAR     70  63  78 SE7       30.05F
$$
MNZ078>079-086>088-094>096-250300-
   Southeast Minnesota

CITY           SKY/WX    TMP DP  RH WIND       PRES   REMARKS
ROCHESTER      CLEAR     64  60  87 SE5       30.08R
RED WING       CLEAR     70  57  64 SE6       30.04F
STANTON        PTCLDY    71  61  71 SE5       30.03F
DODGE CENTER   CLEAR     64  61  88 SE7       30.07F
WINONA         PTCLDY    70  61  73 CALM      30.07S
AUSTIN         CLEAR     66  61  82 SE5       30.06S
PRESTON        CLOUDY    67  59  76 CALM      30.09R
$$
ABBREVIATIONS USED IN REMARKS
   TC - TEMPERATURES IN CELSIUS
  WCI - WIND CHILL INDEX
   HX - HEAT INDEX
  VSB - VISIBILITY
$$




USA.gov is the U.S. government's official web portal to all federal, state and local government web resources and services.